STARLINK-32284, 61005

Orbit data source: Space-Track

STARLINK-32284, 61005 is a payload satellite owned by SpaceX/Seattle (US) in LEO that was launched on Thu, 05 Sep 2024 UTC via an FALCON 9 launch vehicle from the Air Force Eastern Test Range (AFETR). Payload-class satellites include a variety of spacecraft equipped with specific instruments for various scientific and technological missions. These include communications satellites like Starlink; space stations such as the ISS; scientific satellites like the Hubble; Earth observation satellites from companies like Planet Labs, Umbra, and HawkEye 360; GPS; miniature CubeSats for education and research; and military/defense satellites.

Loading next visibility...
Identifier
61005, 2024-158R
Orbit
LEO
Country
Flag of USUS
Related business
Manufacturer
SpaceX/Seattle
Mission
Operational Commercial Communications
Bus & Motor
STARLINK V2M, Unknown motor
Mass
730 kg wet, ~700 kg dry
Launch date (UTC)
2024-09-05 (2 years ago)
Launch vehicle
FALCON 9
Launch site
Air Force Eastern Test Range (AFETR)
Object type
Payload
Rocket body
Debris
Shape & HBR
Box + 2 Pan, 17.7 m
Radar Cross Section
33.884 m², Large (>1 m²)

Expand to show TLE details & history
Last TLE update: 19 hours ago

TLE from 19 hours ago
0 STARLINK-32284
1 61005U 24158R   26124.49173960 -.00000103  00000-0  86485-5 0  9997
2 61005  53.1597 166.4191 0000996  96.3902 263.7212 15.30185737 94124
Epoch: 2026-05-04T11:48Z
TLE epoch observation values (Epoch: 2026-05-04T11:48:06.301Z)
Latitude
-0.00004°
Longitude
127.01265°
Altitude
476.232 km
Speed
7.629 km/s
True Right ascension
11h 05m 40s
True Declination
0° 00' 00"
Sunlit
Object was in full shadow at epoch
Visualization orbit readout
Latitude
Unknown
Longitude
Unknown
Altitude
Unknown
Speed
Unknown
Apparent Right ascension
Unknown
Apparent Declination
Unknown
Sunlit
N/A
Visualization observer readout
Local Sidereal Time
15:02:08
Azimuth
Unknown
Elevation
Unknown
Doppler factor
Unknown
Orbital elements
Apogee altitude
476.197 km
Perigee altitude
474.832 km
Semi-major axis
6,853.651 km
Eccentricity
0.0001
Inclination
53.1597°
RAAN
166.4191°
Arg. of periapsis
96.3902°
True anomaly
263.70986°
Mean anomaly
263.7212°
Eccentric anomaly
263.71553°
Mean motion
3.82525 °/min
Orbital period
94.11 mins
BSTAR
0.0000086485
Loading maneuver chart data...
Computing Atmospheric mass density...
Loading historical data...
Loading historical data...
Loading historical data...
Loading historical data...
Loading historical data...
Loading historical data...
Loading historical data...

Documentation

Showing up to 5 results
|